Total_Precipitation_Accumulation
0.05 0.07 0.23 0.30 0.32 0.31 0.31 0.32 0.30 0.26 0.26 0.27 0.29 0.30 0.30 0.31 0.33 0.35 0.37 0.41 0.43 0.40 0.43 0.50 0.49 0.49 0.48 0.47 0.48 0.46 0.40 0.37 0.37 0.38 0.44 0.47 0.43 0.35 0.29 0.25 0.22 0.29 0.38
0.04 0.06 0.17 0.22 0.26 0.29 0.30 0.29 0.26 0.21 0.22 0.22 0.21 0.23 0.24 0.26 0.29 0.31 0.36 0.43 0.46 0.41 0.42 0.47 0.50 0.51 0.50 0.49 0.50 0.45 0.35 0.27 0.23 0.22 0.24 0.31 0.35 0.33 0.28 0.26 0.27 0.40 0.43
0.02 0.04 0.11 0.18 0.23 0.26 0.28 0.27 0.24 0.20 0.18 0.18 0.17 0.20 0.21 0.23 0.27 0.29 0.35 0.37 0.40 0.44 0.44 0.44 0.53 0.57 0.57 0.54 0.51 0.44 0.35 0.23 0.15 0.14 0.13 0.23 0.33 0.37 0.33 0.29 0.30 0.34 0.38
0.01 0.02 0.05 0.14 0.21 0.25 0.26 0.25 0.22 0.21 0.18 0.17 0.17 0.19 0.20 0.23 0.25 0.29 0.35 0.38 0.42 0.51 0.54 0.56 0.63 0.62 0.57 0.51 0.47 0.41 0.37 0.25 0.13 0.10 0.09 0.20 0.36 0.44 0.38 0.34 0.29 0.31 0.34
0.00 0.01 0.04 0.12 0.20 0.23 0.25 0.26 0.25 0.22 0.19 0.18 0.18 0.18 0.20 0.22 0.25 0.28 0.30 0.36 0.42 0.53 0.53 0.53 0.58 0.56 0.51 0.48 0.43 0.44 0.46 0.33 0.17 0.07 0.07 0.14 0.30 0.47 0.42 0.39 0.33 0.29 0.31
0.00 0.01 0.04 0.12 0.20 0.22 0.26 0.30 0.31 0.25 0.22 0.21 0.20 0.20 0.21 0.22 0.24 0.26 0.27 0.27 0.31 0.39 0.42 0.47 0.50 0.49 0.47 0.44 0.37 0.41 0.50 0.42 0.19 0.06 0.07 0.11 0.24 0.42 0.42 0.41 0.36 0.31 0.28
0.00 0.01 0.03 0.12 0.20 0.22 0.25 0.30 0.32 0.26 0.24 0.23 0.24 0.25 0.24 0.23 0.24 0.24 0.22 0.22 0.22 0.25 0.31 0.39 0.47 0.50 0.49 0.43 0.38 0.41 0.49 0.39 0.16 0.13 0.15 0.15 0.21 0.31 0.44 0.46 0.40 0.36 0.32
0.00 0.01 0.04 0.13 0.21 0.23 0.25 0.28 0.35 0.31 0.27 0.25 0.27 0.29 0.29 0.29 0.29 0.30 0.25 0.22 0.20 0.20 0.23 0.29 0.40 0.56 0.55 0.43 0.40 0.46 0.44 0.25 0.11 0.10 0.14 0.18 0.22 0.35 0.66 0.74 0.54 0.43 0.39
0.01 0.02 0.05 0.12 0.18 0.22 0.24 0.28 0.35 0.33 0.31 0.31 0.32 0.32 0.31 0.31 0.31 0.32 0.30 0.28 0.28 0.26 0.24 0.25 0.33 0.52 0.53 0.46 0.46 0.49 0.36 0.16 0.08 0.13 0.13 0.21 0.20 0.42 0.78 0.87 0.74 0.58 0.47
0.01 0.02 0.05 0.11 0.15 0.20 0.23 0.27 0.32 0.32 0.33 0.33 0.33 0.32 0.28 0.28 0.30 0.29 0.26 0.25 0.27 0.29 0.27 0.25 0.27 0.38 0.44 0.45 0.52 0.46 0.22 0.10 0.06 0.09 0.19 0.19 0.18 0.44 0.84 0.94 0.87 0.72 0.59
0.03 0.04 0.06 0.12 0.16 0.19 0.22 0.24 0.28 0.29 0.30 0.31 0.31 0.27 0.27 0.26 0.25 0.24 0.20 0.19 0.24 0.26 0.27 0.28 0.29 0.34 0.38 0.36 0.42 0.32 0.15 0.08 0.07 0.11 0.18 0.17 0.19 0.41 0.80 0.97 0.92 0.84 0.75
0.04 0.05 0.07 0.12 0.16 0.19 0.20 0.23 0.27 0.27 0.24 0.23 0.23 0.24 0.27 0.27 0.26 0.23 0.20 0.20 0.24 0.25 0.27 0.32 0.35 0.34 0.33 0.29 0.41 0.33 0.17 0.12 0.11 0.07 0.11 0.10 0.21 0.42 0.67 0.88 0.98 0.91 0.87
0.04 0.07 0.09 0.14 0.17 0.19 0.22 0.23 0.26 0.27 0.26 0.25 0.24 0.26 0.31 0.34 0.33 0.29 0.26 0.24 0.24 0.23 0.25 0.29 0.35 0.31 0.35 0.47 0.61 0.49 0.33 0.26 0.16 0.09 0.05 0.07 0.17 0.32 0.53 0.71 0.92 1.03 1.03
0.06 0.07 0.10 0.15 0.18 0.21 0.23 0.26 0.24 0.24 0.23 0.23 0.24 0.24 0.28 0.30 0.28 0.27 0.24 0.23 0.23 0.23 0.24 0.25 0.27 0.30 0.32 0.39 0.44 0.40 0.33 0.29 0.20 0.15 0.09 0.08 0.11 0.19 0.33 0.51 0.72 0.98 1.08
0.06 0.07 0.10 0.13 0.16 0.20 0.25 0.28 0.27 0.25 0.23 0.20 0.19 0.19 0.20 0.21 0.21 0.21 0.20 0.19 0.19 0.20 0.21 0.22 0.21 0.22 0.25 0.28 0.28 0.28 0.28 0.25 0.21 0.20 0.17 0.13 0.11 0.13 0.21 0.37 0.51 0.76 1.03
0.07 0.08 0.09 0.11 0.14 0.19 0.21 0.24 0.28 0.28 0.26 0.25 0.22 0.20 0.19 0.18 0.17 0.17 0.16 0.16 0.15 0.16 0.16 0.19 0.19 0.19 0.21 0.23 0.21 0.21 0.22 0.20 0.19 0.20 0.19 0.17 0.15 0.13 0.19 0.30 0.41 0.54 0.81
0.06 0.08 0.10 0.11 0.13 0.18 0.20 0.21 0.24 0.28 0.28 0.27 0.24 0.22 0.20 0.18 0.17 0.16 0.16 0.16 0.15 0.16 0.20 0.25 0.27 0.28 0.28 0.28 0.25 0.25 0.24 0.22 0.20 0.22 0.23 0.22 0.21 0.19 0.21 0.32 0.40 0.46 0.62
0.06 0.08 0.10 0.12 0.13 0.16 0.21 0.23 0.24 0.28 0.30 0.27 0.26 0.25 0.24 0.22 0.21 0.20 0.18 0.17 0.16 0.18 0.23 0.29 0.33 0.35 0.33 0.33 0.32 0.33 0.33 0.32 0.27 0.28 0.30 0.26 0.26 0.24 0.23 0.28 0.38 0.45 0.58
0.06 0.07 0.10 0.13 0.14 0.16 0.21 0.26 0.25 0.28 0.32 0.29 0.28 0.29 0.28 0.28 0.27 0.25 0.23 0.20 0.21 0.23 0.25 0.29 0.31 0.35 0.35 0.37 0.38 0.38 0.41 0.42 0.39 0.34 0.31 0.29 0.27 0.25 0.26 0.28 0.33 0.37 0.50
0.07 0.08 0.09 0.12 0.16 0.16 0.20 0.29 0.31 0.30 0.31 0.32 0.28 0.26 0.28 0.30 0.30 0.29 0.27 0.26 0.26 0.29 0.30 0.31 0.33 0.35 0.35 0.40 0.45 0.43 0.45 0.44 0.43 0.39 0.35 0.36 0.35 0.29 0.27 0.28 0.31 0.32 0.35
0.06 0.09 0.10 0.11 0.17 0.19 0.20 0.25 0.29 0.26 0.27 0.30 0.29 0.26 0.27 0.28 0.29 0.29 0.29 0.29 0.30 0.29 0.30 0.33 0.34 0.34 0.33 0.36 0.41 0.37 0.33 0.35 0.37 0.34 0.32 0.34 0.37 0.39 0.38 0.35 0.33 0.33 0.34
0.04 0.07 0.10 0.10 0.13 0.19 0.19 0.19 0.24 0.24 0.25 0.28 0.29 0.28 0.29 0.28 0.29 0.29 0.30 0.31 0.32 0.31 0.29 0.29 0.32 0.35 0.32 0.32 0.40 0.43 0.37 0.32 0.29 0.26 0.26 0.29 0.34 0.41 0.44 0.45 0.44 0.41 0.38
0.05 0.06 0.09 0.10 0.11 0.16 0.22 0.24 0.28 0.32 0.30 0.32 0.31 0.29 0.29 0.29 0.28 0.28 0.28 0.29 0.31 0.34 0.34 0.30 0.30 0.35 0.36 0.33 0.36 0.51 0.57 0.41 0.29 0.22 0.23 0.24 0.27 0.28 0.30 0.34 0.39 0.42 0.43
0.07 0.08 0.10 0.13 0.12 0.13 0.19 0.27 0.30 0.33 0.29 0.25 0.24 0.26 0.27 0.28 0.28 0.28 0.28 0.30 0.32 0.33 0.35 0.37 0.34 0.34 0.37 0.36 0.35 0.37 0.43 0.45 0.51 0.36 0.16 0.14 0.17 0.19 0.21 0.23 0.26 0.30 0.35
0.06 0.08 0.09 0.14 0.16 0.14 0.15 0.19 0.27 0.32 0.32 0.31 0.30 0.29 0.30 0.31 0.29 0.29 0.28 0.30 0.31 0.32 0.33 0.36 0.38 0.39 0.39 0.39 0.40 0.38 0.34 0.31 0.40 0.56 0.32 0.13 0.12 0.13 0.16 0.20 0.24 0.28 0.32
0.04 0.06 0.09 0.12 0.16 0.16 0.18 0.19 0.24 0.30 0.33 0.37 0.39 0.36 0.33 0.32 0.31 0.31 0.31 0.31 0.32 0.33 0.32 0.35 0.36 0.37 0.37 0.38 0.39 0.40 0.43 0.44 0.39 0.48 0.46 0.25 0.19 0.14 0.14 0.17 0.21 0.26 0.34